Вернуться в каталог

FENGYUN 1C DEB

АктивенSSO
NORAD 30086·DEBRIS·🇨🇳 China

Запущен May 10, 1999 с Taiyuan Satellite Launch Center

Loading…

Ближайшие Пролёты (ближайшие 24 часа)

TLE

СвежийSource: Space-Track

Эпоха: Sep 14, 2026, 22:13 UTC

1 30086U 99025QP  26257.92606757  .00000179  00000-0  13767-3 0  9990
2 30086  98.8812 290.7523 0062315  84.0256  36.5508 14.04086250  5670

Отслеживайте FENGYUN 1C DEB в реальном времени с AllMySat

Download on the App Store